TIME,DELAY(SENSOR),PRES,T(CTD),SAL,OXYGEN,RAWTEMP,T(OPTODE),TCPHASE,FLUOR,BETA(BETA700),BETA(BETA412),BETA(BETA440),CDOM,C(CSC),ED(ED411.90),ED(ED443.80),ED(ED489.40),ED(ED554.70),LU(LU412.20),LU(LU443.80),LU(LU489.40),LU(LU555.00),COMP,TILTX,TILTX(TILTY),CHECK
1351005684,5805,497.1300048828125000,17.1653995513916000,36.3993988037109400,223.8574066162109400,197.0677947998047000,17.1708793640136720,32.4322319030761700,49,99,56,78,51,1837,2147488612,2147768667,2147556690,2147796187,2147312777,2147477750,2147710308,2148247698,3135,7,13,63826
1351005811,5804,485.6900024414062500,17.3101997375488280,36.4248008728027340,225.5350952148437500,192.6336059570312500,17.3057708740234380,32.2856788635253900,49,98,57,77,51,1843,2147485686,2147767195,2147561334,2147795721,2147313179,2147479597,2147705901,2148249051,3169,7,13,20693
1351005940,5805,473.9500122070312500,17.3913002014160160,36.4432983398437500,227.7792968750000000,189.8123016357422000,17.3915996551513670,32.1332588195800800,49,99,56,77,50,1843,2147484352,2147768374,2147558509,2147797732,2147316864,2147480539,2147708928,2148242834,2769,7,13,44984
1351006055,5803,463.4800109863281000,17.4909992218017580,36.4608993530273440,229.0695037841797000,186.6468963623047000,17.4879093170166000,32.0255012512207000,50,98,56,76,51,1842,2147486345,2147763730,2147555200,2147798226,2147317778,2147479908,2147713590,2148243593,3581,7,13,29629
1351006182,5804,451.9500122070312500,17.5757999420166000,36.4781990051269500,230.3401031494140600,183.8964996337890600,17.5716094970703120,31.9247093200683600,50,99,56,77,52,1844,2147485997,2147763465,2147558372,2147794651,2147306038,2147480310,2147710418,2148243840,108,7,13,3472
1351006299,5805,441.5499877929687500,17.6667003631591800,36.4943008422851560,231.4033050537109400,180.8936004638672000,17.6630001068115230,31.8314704895019530,50,99,56,77,52,1846,2147488448,2147765522,2147558244,2147793234,2147314148,2147477705,2147711122,2148240886,3572,7,13,23497
1351006426,5805,430.3699951171875000,17.7432003021240230,36.5094985961914060,233.2561950683593800,178.3809967041015600,17.7394695281982420,31.7068004608154300,50,99,56,78,51,1848,2147488292,2147764864,2147556754,2147793993,2147311085,2147481810,2147707035,2148241526,2655,6,13,48136
1351006555,5802,419.0700073242187500,17.7842006683349600,36.5181999206543000,233.9918975830078000,177.0104980468750000,17.7811908721923830,31.6525001525878900,50,99,56,77,51,1850,2147488292,2147763977,2147555190,2147794112,2147310363,2147484196,2147712155,2148244882,2035,7,13,44320
1351006682,5804,407.9200134277344000,17.8486003875732420,36.5284996032714840,234.9243927001953000,174.9196929931640600,17.8448390960693360,31.5791492462158200,50,99,55,78,51,1850,2147488704,2147764333,2147559570,2147795154,2147310116,2147482240,2147704932,2148243712,1722,7,12,40736
1351006797,5805,397.7300109863281000,17.8917999267578120,36.5354995727539060,234.9626007080078000,173.4781036376953000,17.8887290954589840,31.5576095581054700,50,97,58,77,51,1850,2147490678,2147763584,2147558546,2147794742,2147309897,2147484443,2147709741,2148247972,1504,7,13,14705
1351006926,5802,386.1499938964844000,17.9500999450683600,36.5444984436035160,235.3399963378906200,171.6051940917968800,17.9457492828369140,31.5143604278564450,50,98,55,77,51,1850,2147488356,2147762633,2147557129,2147796553,2147316251,2147482377,2147706733,2148244105,1277,7,13,54235
1351007053,5804,374.6499938964844000,17.9904994964599600,36.5504989624023440,235.2855072021484400,170.2445068359375000,17.9871807098388670,31.4984397888183600,49,98,55,77,51,1852,2147489481,2147764160,2147558299,2147791424,2147307766,2147478153,2147707913,2148242870,1019,7,13,1316
1351007182,5805,363.0899963378906000,18.0426998138427730,36.5575981140136700,235.0547027587890600,168.5270996093750000,18.0394802093505860,31.4867095947265620,49,99,56,77,51,1853,2147488768,2147761728,2147560027,2147794331,2147312310,2147480228,2147704658,2148242989,240,7,12,28472
1351007309,5804,351.8399963378906000,18.0855007171630860,36.5628013610839840,234.5382995605468800,167.1264953613281200,18.0821399688720700,31.4924297332763670,49,99,55,78,51,1852,2147489792,2147765942,2147560557,2147795181,2147315190,2147479862,2147711040,2148241508,1349,7,13,6445
1351007424,5803,341.8699951171875000,18.1298999786376950,36.5685997009277340,234.2494049072265600,165.6752014160156200,18.1263408660888670,31.4868507385253900,50,99,56,78,50,1855,2147490404,2147764169,2147560228,2147790610,2147304722,2147481654,2147709357,2148242404,3197,7,13,54890
1351007553,5809,331.1799926757812500,18.1868991851806640,36.5741996765136700,233.7144012451172000,163.7686004638672000,18.1844100952148440,31.4871807098388670,50,100,56,77,52,1851,2147494217,2147765952,2147561536,2147793133,2147310537,2147480000,2147710976,2148242843,29,7,12,56979
1351007680,5804,321.0100097656250000,18.2446994781494140,36.5810012817382800,233.2677001953125000,161.8598937988281200,18.2425594329834000,31.4831600189209000,50,99,55,77,51,1856,2147489033,2147762742,2147558098,2147794468,2147309824,2147482788,2147707456,2148245686,3462,7,13,34511
1351007833,5806,309.4200134277344000,18.3059005737304700,36.5857009887695300,231.8350982666015600,159.7828063964843800,18.3058395385742200,31.5249595642089840,49,100,56,77,51,1857,2147488978,2147766829,2147565933,2147790555,2147311122,2147484022,2147713865,2148244397,2956,6,13,34255
1351007984,5803,298.6600036621094000,18.3901996612548830,36.5914001464843750,229.5019989013672000,156.9412994384765600,18.3924198150634770,31.6012992858886720,49,101,56,78,51,1861,2147495268,2147767515,2147571830,2147790756,2147304576,2147488530,2147717339,2148244370,2219,7,12,35692
1351008156,5804,285.2999877929687500,18.5037002563476560,36.6006011962890600,227.7637939453125000,153.1466979980468800,18.5080699920654300,31.6359996795654300,49,99,56,76,52,1860,2147493787,2147765714,2147578898,2147790427,2147310500,2147485202,2147722130,2148241728,1574,7,12,22685
1351008271,5804,274.3599853515625000,18.6110992431640620,36.6082992553710940,227.5234069824218800,149.9331970214843800,18.6060295104980470,31.6049995422363280,49,99,56,77,51,1863,2147491584,2147766912,2147566061,2147787913,2147304704,2147484946,2147713974,2148240411,1126,8,12,2047
1351008386,5802,263.6000061035156000,18.6902008056640620,36.6106986999511700,226.8524017333984400,146.7236938476562500,18.7038803100585940,31.5953197479248050,49,98,55,77,51,1860,2147497234,2147773357,2147593846,2147790811,2147308059,2147490322,2147726272,2148242898,1113,7,12,16389
1351008515,5804,251.9100036621093800,18.8892993927001950,36.6116981506347660,227.0092010498047000,140.7902069091797000,18.8848590850830080,31.5078601837158200,50,98,56,77,51,1861,2147496704,2147777874,2147609673,2147787904,2147312978,2147492050,2147739602,2148242276,680,7,13,40884
1351008630,5803,241.7500000000000000,19.0020999908447270,36.6074981689453100,230.0818023681640600,137.0998992919922000,18.9974498748779300,31.3071899414062500,50,97,56,76,52,1863,2147492763,2147781705,2147628827,2147789312,2147313344,2147495643,2147749659,2148242550,133,7,12,46697
1351008759,5801,230.5800018310547000,19.0736007690429700,36.5859985351562500,236.6116943359375000,134.5821075439453000,19.0742893218994140,30.9594898223876950,49,98,56,76,50,1862,2147494528,2147792228,2147662710,2147787044,2147309833,2147507922,2147766244,2148244013,3458,7,13,9265
1351008886,5805,219.7299957275390600,19.1842002868652340,36.5789985656738300,243.2445983886718800,131.0175018310547000,19.1830997467041000,30.6042709350585940,49,100,57,77,52,1863,2147495003,2147778614,2147591469,2147789467,2147311515,2147493979,2147727341,2148240795,130,7,12,2668
1351009013,5804,208.7100067138672000,19.2614994049072270,36.5797004699707000,246.0265045166015600,128.5469970703125000,19.2585296630859380,30.4458999633789060,50,97,55,77,50,1863,2147498075,2147782235,2147600886,2147789165,2147312411,2147495360,2147732233,2148242258,114,7,12,38519
1351009160,5806,197.4700012207031200,19.3316993713378900,36.5797996520996100,246.8591003417968800,126.2437973022461000,19.3288707733154300,30.3784999847412100,49,98,56,77,51,1865,2147501613,2147848192,2147801609,2147786669,2147310445,2147537673,2147845723,2148248265,3535,7,13,39015
1351009215,5804,193.6699981689453000,19.3561992645263670,36.5811996459960940,246.9342041015625000,125.4671020507812500,19.3525905609130860,30.3647708892822270,50,99,57,78,51,1866,2147509778,2147854116,2147829632,2147786944,2147313005,2147546093,2147862006,2148247835,3344,7,13,10703
1351009270,5801,189.9799957275390600,19.3745994567871100,36.5826988220214840,247.0968017578125000,124.7371978759765600,19.3748893737792970,30.3480396270751950,49,97,56,77,50,1865,2147505353,2147872137,2147856018,2147788397,2147311021,2147551616,2147875867,2148247652,3351,7,12,63968
1351009325,5803,186.3200073242187500,19.4123992919921880,36.5826988220214840,247.4266052246093800,123.6081008911132800,19.4093799591064450,30.3187007904052730,50,99,56,77,50,1861,2147505462,2147880164,2147893805,2147787538,2147321764,2147563986,2147893842,2148247798,3442,7,12,13652
1351009403,5805,181.7799987792968800,19.4263000488281250,36.5817985534668000,247.9913940429687500,123.0950012207031200,19.4250507354736330,30.2868099212646500,50,100,56,76,50,1861,2147512182,2147895835,2147935963,2147788361,2147314075,2147575213,2147919469,2148251593,3203,7,13,31533
1351009470,5802,178.4799957275390600,19.4598007202148440,36.5831985473632800,247.8504943847656200,122.0597991943359400,19.4566802978515620,30.2794990539550780,50,99,56,76,50,1860,2147514331,2147915172,2147978779,2147787081,2147316187,2147587510,2147946102,2148251309,3069,7,12,27615
1351009549,5800,174.6600036621093800,19.4813995361328120,36.5863990783691400,247.7330017089843800,121.3010025024414000,19.4798603057861330,30.2749404907226560,50,98,55,78,50,1862,2147518418,2147938020,2148030701,2147788882,2147320228,2147597778,2147969517,2148255012,2670,7,12,61303
1351009640,5802,170.4100036621093800,19.5067005157470700,36.5875015258789060,247.5608978271484400,120.5315017700195300,19.5033798217773440,30.2726707458496100,50,100,57,76,50,1859,2147528310,2147966838,2148099748,2147788242,2147322998,2147614473,2148008256,2148257033,2012,7,12,25400
1351009721,5805,166.6399993896484400,19.5753002166748050,36.5937995910644500,247.2752075195312500,118.5207977294921900,19.5648307800292970,30.2591495513916000,50,100,56,77,51,1861,2147532571,2147989741,2148155044,2147786496,2147330349,2147627474,2148039058,2148254180,1684,7,12,53961
1351009812,5801,162.4900054931640600,19.5925006866455080,36.5948982238769500,247.7516021728515600,117.7004013061523400,19.5898990631103500,30.2273998260498050,50,100,56,77,50,1863,2147538368,2148017152,2148211053,2147788269,2147315858,2147642870,2148067510,2148259382,1660,7,13,27810
1351009903,5801,158.6900024414062500,19.6609001159667970,36.5973014831543000,248.4365997314453000,115.5076980590820300,19.6569309234619140,30.1685104370117200,51,100,57,78,50,1864,2147549760,2148058285,2148302884,2147789147,2147335524,2147666358,2148118555,2148261321,1700,7,12,35978
1351010008,5803,154.7500000000000000,19.7306995391845700,36.6054000854492200,249.0189971923828000,113.2815017700195300,19.7250003814697270,30.1137790679931640,50,102,55,77,51,1866,2147561316,2148098386,2148391451,2147790939,2147338267,2147688466,2148165513,2148266944,1478,7,13,59310
1351010111,5803,150.9299926757812500,19.7921009063720700,36.6096992492675800,248.3753051757812500,111.2242965698242200,19.7879104614257800,30.1158199310302730,51,102,56,78,51,1861,2147578486,2148156717,2148508050,2147788461,2147345188,2147719158,2148220141,2148268461,1269,7,12,49929
1351010226,5803,146.6000061035156200,19.9141998291015620,36.6237983703613300,247.2751007080078000,107.2533035278320300,19.9093799591064450,30.1131496429443360,51,101,55,78,50,1862,2147600493,2148229430,2148654144,2147790436,2147354486,2147756059,2148293449,2148275346,1061,7,13,63850
1351010338,5804,141.8399963378906200,20.0788993835449220,36.6446990966796900,245.0664978027343800,102.2959976196289000,20.0611000061035160,30.1481990814209000,51,108,56,78,50,1866,2147639424,2148333595,2148861714,2147790619,2147373869,2147821778,2148400704,2148282130,420,7,12,28701
1351010405,5803,138.0700073242187500,20.1916999816894530,36.6571006774902340,243.1450958251953000,98.2889480590820300,20.1837902069091800,30.1829700469970700,52,105,57,78,51,1862,2147672960,2148434358,2149047808,2147792091,2147391104,2147875958,2148493421,2148285668,408,7,12,36278
1351010472,5802,134.3000030517578000,20.2868003845214840,36.6580009460449200,242.4118957519531200,95.1527404785156200,20.2798595428466800,30.1758804321289060,54,108,56,78,50,1862,2147711579,2148525842,2149218203,2147795712,2147399506,2147920731,2148575506,2148291419,577,7,13,8044
1351010551,5803,130.1699981689453000,20.4008007049560550,36.6685981750488300,242.9635009765625000,91.5053176879882800,20.3916301727294920,30.1037998199462900,55,108,57,78,50,1863,2147779318,2148696804,2149545938,2147799232,2147430509,2148015296,2148739931,2148303021,288,7,13,64371
1351010632,5804,126.3600006103515600,20.5207004547119140,36.6795005798339840,241.2978973388672000,87.5825271606445300,20.5118808746337900,30.1289405822753900,55,107,55,78,50,1863,2147845129,2148843940,2149806290,2147801389,2147459364,2148095497,2148870720,2148312356,3460,7,13,4678
1351010723,5803,122.5899963378906200,20.6389999389648440,36.6786003112793000,242.3607940673828000,83.7964401245117200,20.6280002593994140,30.0318603515625000,59,111,55,78,50,1860,2147924416,2149001371,2150082605,2147804937,2147487707,2148176987,2149003529,2148323574,3446,7,13,3341
1351010826,5804,119.0100021362304700,20.7425994873046880,36.6794013977050800,244.5384979248047000,81.1839294433593800,20.7081604003906250,29.9003105163574220,59,110,56,77,50,1861,2148022180,2149196178,2150423552,2147809545,2147536338,2148264649,2149163300,2148333312,3013,7,12,51838
1351010952,5802,114.7600021362304700,20.8656005859375000,36.6885986328125000,245.9147033691406200,76.1259078979492200,20.8634204864501950,29.7741909027099600,62,111,56,78,50,1861,2148208649,2149562322,2151048073,2147823268,2147600969,2148426642,2149437851,2148352329,1301,7,12,38276
1351011043,5805,110.0899963378906200,21.0179996490478500,36.6902999877929700,244.8553009033203000,71.1989898681640600,21.0147495269775400,29.7583999633789060,63,114,57,78,51,1859,2148479204,2150048128,2151845010,2147837449,2147701257,2148644333,2149785024,2148384621,1088,7,12,16976
1351011110,5804,106.7600021362304700,21.2245006561279300,36.7018013000488300,241.3300018310547000,64.3409118652343800,21.2255592346191400,29.8295307159423830,65,115,57,79,51,1858,2148693814,2150446957,2152477321,2147851218,2147786468,2148816896,2150037019,2148403803,797,7,12,29957
1351011201,5803,103.0500030517578100,21.4335994720459000,36.7079010009765600,235.4519042968750000,57.6462898254394500,21.4315395355224600,30.0138797760009770,68,114,56,79,51,1858,2148897764,2150715776,2152807798,2147863835,2147864384,2148935460,2150159579,2148424164,398,7,13,45436
1351011282,5806,100.1600036621093800,21.5242004394531250,36.7153015136718750,232.1972961425781200,54.7410011291503900,21.5209903717041000,30.1293792724609380,67,115,57,81,52,1858,2149313920,2151423186,2153902966,2147893595,2148004534,2149222272,2150578459,2148459318,21,7,12,55819
1351011337,5805,98.4000015258789000,21.5883998870849600,36.7182998657226560,231.7691040039062500,52.9444808959960940,21.5763206481933600,30.1266593933105470,70,117,56,79,51,1857,2149543972,2151755227,2154394413,2147901833,2148076928,2149352137,2150782628,2148476105,3203,7,13,57615
1351011392,5805,96.8000030517578100,21.6959991455078120,36.7200012207031250,230.0829010009765600,49.4796905517578100,21.6830692291259770,30.1624794006347660,69,114,56,80,51,1856,2149796818,2152136429,2154944256,2147918866,2148175872,2149512201,2151019017,2148497170,2976,7,13,16259
1351011459,5804,95.2200012207031200,21.8593006134033200,36.7196998596191400,230.0007019042968800,44.2962799072265600,21.8428802490234380,30.0997200012207030,75,116,56,80,50,1856,2150082258,2152557229,2155535222,2147938523,2148283346,2149692544,2151244041,2148521782,173,7,12,48247
1351011585,5804,92.5199966430664000,22.0387001037597660,36.7192001342773440,229.8634948730468800,38.5757904052734400,22.0193901062011720,30.0331592559814450,75,121,56,80,51,1853,2150762139,2153567606,2156983259,2147984045,2148516598,2150048649,2151742729,2148575542,678,7,12,39579
1351011640,5803,90.4300003051757800,22.1156997680664060,36.7148017883300800,230.5726928710937500,35.6020507812500000,22.1112098693847660,29.9615192413330080,77,120,56,78,50,1852,2151247533,2154229650,2157858368,2148011538,2148679158,2150301421,2152103570,2148610496,658,7,12,61461
1351011695,5802,88.3099975585937500,22.3757991790771500,36.7155990600585940,233.9557037353515600,27.9267005920410160,22.3484001159667970,29.7049102783203120,82,133,57,81,50,1848,2151826843,2155039899,2158931995,2148057700,2148878784,2150587245,2152480923,2148653302,549,7,13,15186
1351011750,5804,86.6299972534179700,22.4587993621826170,36.7196998596191400,237.0977935791015600,25.1354999542236330,22.4347305297851560,29.5242805480957030,82,124,56,80,50,1846,2152308873,2155715876,2159891657,2148092708,2149059977,2150842441,2152843117,2148696502,660,7,12,43023
1351011805,5805,85.2799987792968800,22.4473991394042970,36.7095985412597660,238.1428070068359400,24.8860893249511720,22.4424495697021500,29.4734306335449220,85,128,56,80,50,1846,2152720859,2156278336,2160612224,2148123757,2149200502,2151036489,2153111350,2148723785,900,7,12,44279
1351011895,5804,82.5599975585937500,22.6152000427246100,36.7154998779296900,238.6569061279297000,20.2912902832031250,22.5846500396728500,29.3923206329345700,85,127,57,81,50,1847,2153979620,2157984356,2162877485,2148228059,2149620059,2151606939,2153929801,2148821440,1360,7,13,60224
1351011950,5803,80.0800018310546900,22.6963996887207030,36.7019996643066400,238.4064025878906200,17.1167201995849600,22.6829700469970700,29.3636894226074220,88,129,55,81,50,1843,2155204681,2159609344,2164864758,2148322550,2150021504,2152150509,2154641353,2148910464,1605,7,12,32281
1351012005,5802,77.7399978637695300,22.8001003265380860,36.6948013305664060,238.5816955566406200,14.2013998031616210,22.7733097076416000,29.3191204071044920,88,127,57,81,50,1842,2156674441,2161488859,2167152777,2148424338,2150500617,2152779245,2155450496,2149007323,1588,7,12,10981
1351012060,5804,75.8300018310546900,22.9111995697021500,36.6846008300781250,240.3755950927734400,10.5020599365234380,22.8880004882812500,29.1917400360107420,88,131,56,80,51,1846,2158115830,2163329243,2169321417,2148544265,2150991286,2153444370,2156320978,2149113828,1892,7,12,35927
1351012115,5805,74.3300018310546900,23.0445003509521500,36.6966018676757800,239.3314971923828000,6.1893129348754880,23.0218200683593750,29.1847591400146500,94,128,59,81,51,1843,2159412361,2164936548,2171171044,2148635373,2151417453,2153990427,2156979318,2149198409,1498,7,12,17053
1351012205,5803,72.0699996948242200,23.2723007202148440,36.6936988830566400,234.5348052978515600,-1.6341450214385986,23.2648200988769530,29.3049201965332030,101,135,57,81,50,1836,2162552813,2168969389,2175746614,2148850313,2152385161,2155219538,2158491748,2149394450,1219,7,13,63037
1351012272,5802,69.9400024414062500,23.4937000274658200,36.6949996948242200,232.2118072509765600,-8.1450548171997070,23.4673309326171880,29.3306903839111330,105,140,57,83,51,1827,2165520338,2172631149,2179466422,2149036854,2153203922,2156189659,2159683858,2149562752,1431,8,12,4706
1351012339,5804,68.3600006103515600,23.5158996582031250,36.6860008239746100,231.4414978027343800,-8.9799280166625980,23.4933204650878900,29.3560600280761720,106,141,58,84,51,1830,2168490706,2176321984,2183257325,2149243611,2153978322,2157150070,2160925449,2149721024,2299,8,12,58903
1351012442,5804,66.3799972534179700,23.7348003387451170,36.6565017700195300,231.8854064941406200,-15.7761497497558600,23.7050094604492200,29.2500400543212900,86,135,57,85,50,1829,2173121325,2182096109,2189157485,2149581220,2155280045,2158686208,2162651748,2149958043,3074,7,12,38610
1351012544,5804,64.0800018310546900,24.0279006958007800,36.6272010803222660,233.4490051269531200,-24.4997806549072270,23.9771499633789060,29.0686397552490230,71,130,57,82,50,1839,2177840448,2187382491,2194219885,2149938624,2157361353,2161217737,2165399378,2150336978,392,7,12,50306
1351012623,5805,62.3899993896484400,24.2427005767822270,36.6105003356933600,235.0966033935547000,-32.3320884704589840,24.2219009399414060,28.8954792022705080,65,129,56,82,50,1838,2166895780,2171117997,2172749412,2148910884,2153899282,2155930422,2157798208,2149427008,751,7,12,1932
1351012869,5803,60.1899986267089840,24.3738002777099600,36.5904998779296900,238.6502990722656200,-37.4150886535644500,24.3809604644775400,28.6723308563232420,65,127,56,83,50,1836,2178791168,2185072283,2187482276,2149803556,2158570230,2161885001,2164777773,2150273545,3569,8,12,30134
1351012948,5804,58.1699981689453100,24.6210002899169920,36.5405998229980500,243.4147949218750000,-44.7271385192871100,24.6100692749023440,28.3720207214355470,65,130,56,82,51,1833,2195769618,2206216795,2211960146,2151495433,2164966820,2170133641,2174422400,2151564699,864,8,12,58480
1351013122,5803,55.9900016784668000,24.9018993377685550,36.4989013671875000,246.5305023193359400,-53.1175689697265600,24.8734207153320300,28.1343803405761720,63,128,57,83,50,1830,2194552923,2203073965,2206641170,2151412992,2165699849,2170119917,2173059803,2151428544,531,8,12,29653
1351013275,5807,54.0999984741210940,25.3173007965087900,36.3964004516601560,243.1295928955078000,-65.8230133056640600,25.2731800079345700,28.1253395080566400,63,132,57,84,50,1832,2173083035,2174811904,2173261403,2149366994,2157617261,2158943872,2159148425,2149696786,140,7,12,62602
1351013477,5805,52.8499984741210940,25.6648006439209000,36.2751998901367200,241.1114959716797000,-77.4971694946289000,25.6415405273437500,28.0704307556152340,60,130,56,83,48,1833,2210419245,2220950793,2225639734,2153335780,2173037714,2178563382,2181759433,2152664356,3103,6,12,24093
1351013809,5805,50.8899993896484400,25.7572002410888670,36.2521018981933600,241.2129058837890600,-79.5345382690429700,25.7059402465820300,28.0410003662109380,58,123,56,82,50,1830,2171276763,2171621202,2168996470,2149124580,2158354349,2158930752,2158234267,2149555721,1876,8,12,43575
1351014094,5804,48.7299995422363300,25.7740001678466800,36.2391014099121100,241.0469970703125000,-81.8082427978515600,25.7778396606445300,28.0203895568847660,59,120,56,82,49,1829,2218579510,2228447241,2232833581,2155014829,2185100562,2190440859,2191649499,2153996790,1494,8,12,26271
1351014139,5803,46.7200012207031250,25.7845993041992200,36.2425003051757800,241.0872039794922000,-82.1050567626953100,25.7872295379638670,28.0150508880615230,58,119,55,82,50,1827,2224028032,2234243593,2239059044,2156507501,2190745380,2196015963,2196455277,2154771108,1873,8,12,17561
1351014184,5803,44.7200012207031250,25.7887992858886720,36.2447013854980500,241.1660003662109400,-82.3177795410156200,25.7939491271972660,28.0090503692626950,58,119,56,82,49,1826,2229713563,2240363584,2245873627,2157879168,2197641856,2202863707,2202233307,2155609161,1955,8,12,55137
1351014229,5804,42.7900009155273440,25.8003005981445300,36.2458000183105500,241.0838928222656200,-82.5879364013671900,25.8024997711181640,28.0092601776123050,57,121,56,82,49,1824,2236357604,2247348690,2253409874,2159679744,2204922349,2210185197,2208512137,2156606546,1934,8,12,58680
1351014286,5803,40.5900001525878900,25.8092994689941400,36.2449989318847660,241.2234039306640600,-82.9120864868164000,25.8127593994140620,27.9993000030517580,59,120,57,80,48,1821,2243477805,2255663168,2263584393,2162183195,2212142070,2216815744,2213537581,2157508745,1825,8,12,33366
1351014355,5804,37.7599983215332000,25.8115005493164060,36.2449989318847660,241.3798065185547000,-82.9696273803711000,25.8145809173584000,27.9917392730712900,55,120,56,82,50,1821,2195218313,2195735570,2193102107,2153586413,2184240548,2182596854,2176625609,2152273133,1645,7,12,35189